sat.trackr.live / text

‹ back to catalog

GJZ 01

NORAD 62290 · 2024-238A

PAYLOAD ACTIVE UNKNOWN

§ Identity

Operator
Country
PRC
Launch date
2024-12-12
Launch site
JSC
Launch vehicle
Mass (kg)
RCS (m²)

External: N2YO · Heavens-Above · Gunter

§ Orbital elements

Epoch: 2026-09-22T21:55:06.608352Z

Period
104.71 min
Inclination
59.9159°
Eccentricity
0.0017397
Mean motion
13.75233908 rev/d
Perigee alt
968.0 km
Apogee alt
993.6 km
Semi-major
7,359.0 km
B*
6.3094e-5
RAAN
350.8503°
Arg perigee
349.7311°
Mean anomaly
10.3339°
Rev number
8,904

§ Raw data

GJZ 011 62290U 24238A   26265.91327093 -.00000058  00000+0  63094-4 0  99922 62290  59.9159 350.8503 0017397 349.7311  10.3339 13.75233908 89049

JSON: /api/v1/satellites/62290 · /tle

For live sub-satellite position, see the globe view (requires WebGL).

§ Visibility from observer

Set your observer location to see the next 7 days of passes ≥ 10°. The values pass through the URL so the page stays shareable.

No JS? Fill the form by hand. The geolocation button needs JavaScript.